Flag for Canada Weather past 2 weeks in Fort Nelson, British Columbia, Canada

Now
54 °F

Sunny.


Feels Like: 54 °F
Forecast: 50 / 82 °F
Wind: No wind

Location: Fort Nelson

Current Time: May 23, 2015 at 8:03:47 AM

Latest Report: May 23, 2015 at 7:00 AM


Visibility: 10 mi

Pressure: 30.20 "Hg

Humidity: 72%

Dew point: 45 °F

Location of Fort NelsonLocation

Historic Weather in Fort Nelson — Graph

°F

Fort Nelson temperature yesterday

Maximum temperature yesterday: 81 °F (at 3:00 PM)
Minimum temperature yesterday: 52 °F (at 4:00 AM)
Average temperature yesterday: 67 °F

Past Weeks' High & Low Weather Summary

 TemperatureHumidityPressure
High81 °F (May 11, 3:00 PM)82% (May 23, 5:00 AM)30.44 "Hg (May 23, 5:00 AM)
Low32 °F (May 17, 4:00 AM)10% (May 17, 6:00 PM)29.71 "Hg (May 14, 8:00 PM)
Average61 °F39%30.05 "Hg
* Reported May 8 7:00 AM — May 23 7:00 AM, Fort Nelson, Weather by CustomWeather, © 2015

Note: Actual official high and low records may vary slightly from our data, if they occured in-between our weather recording intervals... More about our weather records

Advertising

Fort Nelson weather history for previous 24 hours

 ConditionsComfort  
Time TempWeatherWind HumidityBarometerVisibility
7:00 AM
Sat, May 23
54 °FSunny.No wind72%30.20 "Hg10 mi
6:00 AM48 °FPassing clouds.No wind82%30.21 "Hg10 mi
5:00 AM46 °FPassing clouds.2 mph82%30.21 "Hg15 mi
4:00 AM48 °FPassing clouds.No wind76%30.21 "Hg15 mi
3:00 AM50 °FPassing clouds.2 mph76%30.19 "Hg15 mi
2:00 AM50 °FPassing clouds.5 mph76%30.19 "Hg15 mi
1:00 AM54 °FPassing clouds.6 mph67%30.18 "Hg15 mi
12:00 AM55 °FPassing clouds.3 mph67%30.16 "Hg15 mi
11:00 PM
Fri, May 22
59 °FPassing clouds.3 mph59%30.15 "Hg15 mi
10:00 PM64 °FPassing clouds.7 mph46%30.13 "Hg15 mi
9:00 PM70 °FScattered clouds.5 mph38%30.11 "Hg15 mi
8:00 PM75 °FScattered clouds.6 mph29%30.10 "Hg20 mi
7:00 PM75 °FBroken clouds.6 mph31%30.09 "Hg15 mi
6:00 PM75 °FScattered clouds.6 mph27%30.09 "Hg20 mi
5:00 PM77 °FBroken clouds.12 mph24%30.11 "Hg20 mi
4:00 PM75 °FPartly sunny.15 mph25%30.12 "Hg15 mi
3:52 PM75 °FBroken clouds.16 mph27%30.12 "Hg15 mi
3:00 PM81 °FBroken clouds.6 mph21%30.09 "Hg15 mi
2:00 PM79 °FScattered clouds.6 mph23%30.09 "Hg15 mi
1:00 PM77 °FScattered clouds.3 mph24%30.10 "Hg15 mi
12:00 PM73 °FPassing clouds.3 mph29%30.11 "Hg15 mi
11:00 AM68 °FScattered clouds.6 mph40%30.11 "Hg15 mi
10:00 AM70 °FScattered clouds.3 mph35%30.11 "Hg15 mi
9:00 AM66 °FScattered clouds.6 mph40%30.09 "Hg15 mi
8:00 AM63 °FScattered clouds.2 mph49%30.08 "Hg15 mi
Weather by CustomWeather, © 2015

See weather overviewHow to use our weather pages